EN

Hourly Weather America Dourada

Today, 20 January, Wednesday

Time Temperature Precipitation Wind Pressure Humidity
00:00 +20°C° 0 mm 5 mps 701 mmHg 82%
01:00 +20°C° 0 mm 4 mps 701 mmHg 85%
02:00 +19°C° 0 mm 4 mps 700 mmHg 88%
03:00 +19°C° 0 mm 3 mps 700 mmHg 91%
04:00 +19°C° 0 mm 3 mps 700 mmHg 91%
05:00 +19°C° 0 mm 3 mps 700 mmHg 90%
06:00 +18°C° 0 mm 3 mps 700 mmHg 90%
07:00 +21°C° 0 mm 3 mps 701 mmHg 77%
08:00 +23°C° 0 mm 4 mps 702 mmHg 65%
09:00 +27°C° 0 mm 5 mps 702 mmHg 52%
10:00 +29°C° 0 mm 5 mps 702 mmHg 45%
11:00 +32°C° 0 mm 4 mps 702 mmHg 37%
12:00 +34°C° 0 mm 4 mps 702 mmHg 30%
13:00 +34°C° 0 mm 4 mps 701 mmHg 30%
14:00 +34°C° 0 mm 5 mps 700 mmHg 30%
15:00 +35°C° 0 mm 5 mps 699 mmHg 30%
16:00 +33°C° 0 mm 5 mps 699 mmHg 37%
17:00 +30°C° 0 mm 5 mps 699 mmHg 44%
18:00 +28°C° 0 mm 5 mps 699 mmHg 51%
19:00 +27°C° 0 mm 5 mps 699 mmHg 60%
20:00 +25°C° 0 mm 5 mps 700 mmHg 69%
21:00 +22°C° 0 mm 5 mps 700 mmHg 79%
22:00 +22°C° 0 mm 5 mps 700 mmHg 81%
23:00 +21°C° 0 mm 5 mps 700 mmHg 84%

Tomorrow, 21 January, Thursday

Time Temperature Precipitation Wind Pressure Humidity
00:00 +20°C° 0 mm 5 mps 700 mmHg 86%
01:00 +21°C° 0 mm 5 mps 700 mmHg 85%
02:00 +21°C° 0 mm 5 mps 700 mmHg 84%
03:00 +21°C° 0 mm 5 mps 700 mmHg 82%
04:00 +20°C° 0 mm 4 mps 700 mmHg 85%
05:00 +20°C° 0 mm 4 mps 700 mmHg 88%
06:00 +19°C° 0 mm 3 mps 700 mmHg 90%
07:00 +21°C° 0 mm 4 mps 701 mmHg 79%
08:00 +25°C° 0 mm 4 mps 702 mmHg 67%
09:00 +27°C° 0 mm 5 mps 703 mmHg 55%
10:00 +29°C° 0 mm 5 mps 702 mmHg 48%
11:00 +32°C° 0 mm 5 mps 702 mmHg 41%
12:00 +34°C° 0 mm 5 mps 702 mmHg 34%
13:00 +34°C° 0 mm 5 mps 701 mmHg 34%
14:00 +34°C° 0 mm 5 mps 701 mmHg 34%
15:00 +34°C° 0 mm 5 mps 700 mmHg 33%
16:00 +33°C° 0 mm 5 mps 700 mmHg 38%
17:00 +30°C° 0 mm 5 mps 700 mmHg 43%
18:00 +29°C° 0 mm 4 mps 700 mmHg 48%
19:00 +27°C° 0 mm 5 mps 700 mmHg 56%
20:00 +25°C° 0 mm 5 mps 701 mmHg 65%
21:00 +23°C° 0 mm 5 mps 701 mmHg 74%
22:00 +22°C° 0 mm 5 mps 701 mmHg 78%
23:00 +21°C° 0 mm 5 mps 701 mmHg 82%

Day after tomorrow, 22 January, Friday

Time Temperature Precipitation Wind Pressure Humidity
00:00 +21°C° 0 mm 5 mps 701 mmHg 87%
01:00 +20°C° 0 mm 5 mps 701 mmHg 86%
02:00 +20°C° 0 mm 4 mps 701 mmHg 85%
03:00 +20°C° 0 mm 4 mps 701 mmHg 84%
04:00 +19°C° 0 mm 4 mps 701 mmHg 85%
05:00 +19°C° 0 mm 4 mps 701 mmHg 87%
06:00 +19°C° 0 mm 3 mps 701 mmHg 88%
07:00 +21°C° 0 mm 4 mps 702 mmHg 76%
08:00 +23°C° 0 mm 5 mps 703 mmHg 63%
09:00 +26°C° 0 mm 5 mps 704 mmHg 51%
10:00 +28°C° 0 mm 5 mps 703 mmHg 48%
11:00 +29°C° 0 mm 5 mps 703 mmHg 45%
12:00 +30°C° 0 mm 5 mps 703 mmHg 42%
13:00 +30°C° 0 mm 5 mps 702 mmHg 42%
14:00 +30°C° 0 mm 4 mps 702 mmHg 42%
15:00 +30°C° 0 mm 4 mps 701 mmHg 43%
16:00 +29°C° 0 mm 4 mps 701 mmHg 47%
17:00 +28°C° 0 mm 4 mps 701 mmHg 52%
18:00 +27°C° 0 mm 4 mps 701 mmHg 56%
19:00 +26°C° 0 mm 3 mps 701 mmHg 61%
20:00 +25°C° 0 mm 3 mps 701 mmHg 67%
21:00 +22°C° 0 mm 3 mps 702 mmHg 72%
22:00 +22°C° 0 mm 3 mps 702 mmHg 76%
23:00 +21°C° 0 mm 4 mps 701 mmHg 79%

23 January, Saturday

Time Temperature Precipitation Wind Pressure Humidity
00:00 +21°C° 0 mm 4 mps 701 mmHg 83%
01:00 +20°C° 0 mm 4 mps 701 mmHg 84%
02:00 +20°C° 0 mm 4 mps 701 mmHg 84%
03:00 +19°C° 0 mm 3 mps 700 mmHg 85%
04:00 +19°C° 0 mm 4 mps 701 mmHg 84%
05:00 +20°C° 0 mm 4 mps 701 mmHg 83%
06:00 +20°C° 0 mm 4 mps 702 mmHg 83%
07:00 +22°C° 0 mm 4 mps 702 mmHg 75%
08:00 +25°C° 0 mm 5 mps 703 mmHg 68%
09:00 +26°C° 0 mm 5 mps 703 mmHg 61%
10:00 +28°C° 0 mm 5 mps 703 mmHg 55%
11:00 +30°C° 0 mm 5 mps 703 mmHg 49%
12:00 +32°C° 0 mm 5 mps 702 mmHg 43%
13:00 +33°C° 0 mm 5 mps 702 mmHg 41%
14:00 +33°C° 0 mm 5 mps 701 mmHg 40%
15:00 +33°C° 0 mm 5 mps 700 mmHg 39%
16:00 +30°C° 0 mm 5 mps 700 mmHg 46%
17:00 +29°C° 0 mm 5 mps 700 mmHg 53%
18:00 +27°C° 0 mm 5 mps 700 mmHg 60%
19:00 +26°C° 0 mm 5 mps 700 mmHg 62%
20:00 +25°C° 0 mm 5 mps 701 mmHg 65%
21:00 +23°C° 0 mm 5 mps 701 mmHg 67%
22:00 +22°C° 0 mm 5 mps 701 mmHg 69%
23:00 +21°C° 0 mm 5 mps 701 mmHg 71%

24 January, Sunday

Time Temperature Precipitation Wind Pressure Humidity
00:00 +21°C° 0 mm 5 mps 701 mmHg 73%
01:00 +20°C° 0 mm 4 mps 700 mmHg 78%
02:00 +20°C° 0 mm 4 mps 700 mmHg 83%
03:00 +20°C° 0 mm 4 mps 700 mmHg 89%
04:00 +20°C° 0 mm 4 mps 700 mmHg 86%
05:00 +21°C° 0 mm 4 mps 700 mmHg 84%
06:00 +21°C° 0 mm 4 mps 701 mmHg 81%
07:00 +23°C° 0 mm 5 mps 701 mmHg 74%
08:00 +25°C° 0 mm 5 mps 702 mmHg 67%
09:00 +27°C° 0 mm 6 mps 702 mmHg 60%
10:00 +29°C° 0 mm 6 mps 702 mmHg 53%
11:00 +32°C° 0 mm 6 mps 702 mmHg 46%
12:00 +33°C° 0 mm 5 mps 701 mmHg 40%
13:00 +33°C° 0 mm 5 mps 701 mmHg 39%
14:00 +34°C° 0 mm 5 mps 700 mmHg 38%
15:00 +34°C° 0 mm 5 mps 699 mmHg 38%
16:00 +32°C° 0 mm 5 mps 699 mmHg 40%
17:00 +30°C° 0 mm 4 mps 699 mmHg 43%
18:00 +29°C° 0 mm 4 mps 699 mmHg 46%
19:00 +27°C° 0 mm 4 mps 699 mmHg 52%
20:00 +26°C° 0 mm 4 mps 699 mmHg 58%
21:00 +25°C° 0 mm 5 mps 699 mmHg 65%
22:00 +23°C° 0 mm 5 mps 700 mmHg 73%
23:00 +22°C° 0 mm 4 mps 700 mmHg 80%

25 January, Monday

Time Temperature Precipitation Wind Pressure Humidity
00:00 +21°C° 0 mm 4 mps 700 mmHg 88%
01:00 +21°C° 0 mm 4 mps 700 mmHg 86%
02:00 +21°C° 0 mm 4 mps 699 mmHg 84%
03:00 +22°C° 0 mm 4 mps 699 mmHg 82%
04:00 +21°C° 0 mm 4 mps 700 mmHg 85%
05:00 +21°C° 0 mm 4 mps 700 mmHg 87%
06:00 +20°C° 0 mm 4 mps 700 mmHg 90%
07:00 +22°C° 0 mm 4 mps 700 mmHg 80%
08:00 +23°C° 0 mm 5 mps 701 mmHg 70%
09:00 +26°C° 0 mm 5 mps 701 mmHg 59%
10:00 +29°C° 0 mm 5 mps 701 mmHg 49%
11:00 +32°C° 0 mm 5 mps 701 mmHg 39%
12:00 +34°C° 0 mm 5 mps 701 mmHg 29%
13:00 +35°C° 0 mm 5 mps 700 mmHg 28%
14:00 +35°C° 0 mm 5 mps 699 mmHg 27%
15:00 +36°C° 0 mm 5 mps 699 mmHg 27%
16:00 +34°C° 0 mm 5 mps 699 mmHg 33%
17:00 +32°C° 0 mm 4 mps 698 mmHg 39%
18:00 +29°C° 0 mm 4 mps 698 mmHg 46%
19:00 +28°C° 0 mm 4 mps 698 mmHg 56%
20:00 +26°C° 0 mm 4 mps 699 mmHg 66%
21:00 +23°C° 0 mm 4 mps 699 mmHg 75%
22:00 +23°C° 0 mm 4 mps 699 mmHg 80%
23:00 +22°C° 0 mm 5 mps 699 mmHg 85%
Show more